contact:dominique.lefevre@mio.osupytheas.fr, maurice.libes@osupytheas.fr, didier.mallarino@osupytheas.fr
Project:EMSO http://www.emso-fr.org/EMSO-France
Depth: 2436.0 m
Title:EMSO Ligure Ouest : Data MII capteur AQUADOPP
Date,Latitude,Longitude,X_East,Y_North,Z_Up,Amplitude_X,Amplitude_Y,Amplitude_Z,Batterie,SoundSpeed,Heading,Pitch,Roll,Pressure,TIS,Speed,Direction
, degrees North, degrees East, m.s-1, m.s-1,m.s-1, 1, 1, 1, Volt, m.s-1, degree, degree, degree, dbar, degree_C, m.s-1, degree
2020-03-20T00:10:03,42.805,6.029,0.001,0.028,-0.043,104.0,108.0,103.0,13.4,1505.3,322.8,-0.7,1.8,2470.281,13.31,0.028,2.0
2020-03-20T00:13:03,42.805,6.029,0.001,0.033,-0.018,105.0,107.0,101.0,13.4,1505.3,326.5,-0.7,1.9,2470.244,13.32,0.033,1.7
2020-03-20T00:16:03,42.805,6.029,-0.015,0.042,-0.032,106.0,107.0,103.0,13.4,1505.3,326.2,-0.7,1.9,2470.225,13.33,0.044,340.4
2020-03-20T00:19:03,42.805,6.029,-0.015,0.035,-0.014,106.0,108.0,104.0,13.4,1505.3,325.8,-0.7,1.8,2470.213,13.33,0.038,336.8
2020-03-20T00:22:03,42.805,6.029,0.003,0.029,-0.014,105.0,108.0,101.0,13.4,1505.3,323.5,-0.7,1.8,2470.232,13.33,0.029,5.9
2020-03-20T00:25:03,42.805,6.029,0.009,0.019,-0.03,106.0,107.0,101.0,13.4,1505.4,323.1,-0.7,1.8,2470.209,13.34,0.021,25.3
2020-03-20T00:28:03,42.805,6.029,0.018,0.0,-0.005,105.0,108.0,101.0,13.4,1505.4,323.7,-0.7,1.8,2470.248,13.34,0.018,90.0
2020-03-20T00:31:03,42.805,6.029,0.003,0.013,-0.003,103.0,108.0,101.0,13.4,1505.4,323.1,-0.7,1.8,2470.22,13.34,0.013,13.0
2020-03-20T00:34:03,42.805,6.029,-0.013,0.016,0.018,106.0,108.0,102.0,13.3,1505.4,327.1,-0.7,1.9,2470.198,13.34,0.02,320.9
2020-03-20T00:37:03,42.805,6.029,0.002,0.013,-0.041,106.0,108.0,102.0,13.4,1505.4,325.5,-0.7,1.8,2470.198,13.34,0.013,8.7
2020-03-20T00:40:03,42.805,6.029,-0.011,0.029,-0.014,107.0,108.0,103.0,13.4,1505.4,327.0,-0.7,1.8,2470.211,13.34,0.031,339.2
2020-03-20T00:43:03,42.805,6.029,0.016,0.022,0.006,104.0,107.0,102.0,13.3,1505.4,323.9,-0.7,1.8,2470.192,13.34,0.027,36.0
2020-03-20T00:46:03,42.805,6.029,0.0,0.016,-0.005,105.0,108.0,103.0,13.3,1505.4,324.7,-0.7,1.8,2470.222,13.34,0.016,0.0
2020-03-20T00:49:03,42.805,6.029,0.018,0.023,-0.013,105.0,107.0,103.0,13.4,1505.4,325.8,-0.7,1.9,2470.238,13.34,0.029,38.0
2020-03-20T00:52:03,42.805,6.029,-0.005,0.006,-0.031,106.0,108.0,103.0,13.4,1505.4,326.6,-0.7,1.8,2470.195,13.34,0.007,320.2
2020-03-20T00:55:03,42.805,6.029,-0.014,0.007,-0.05,106.0,109.0,103.0,13.3,1505.4,324.0,-0.7,1.8,2470.229,13.34,0.015,296.6
2020-03-20T00:58:03,42.805,6.029,-0.007,0.021,-0.032,104.0,109.0,102.0,13.3,1505.4,327.9,-0.7,1.8,2470.244,13.34,0.022,341.6
2020-03-20T01:04:03,42.805,6.029,0.032,0.025,0.017,107.0,110.0,105.0,13.3,1505.3,326.6,-0.8,1.9,2470.298,13.32,0.04,52.0
2020-03-20T01:07:03,42.805,6.029,0.014,0.029,-0.028,106.0,108.0,102.0,13.4,1505.3,328.2,-0.7,1.8,2470.25,13.32,0.032,25.8
2020-03-20T01:10:03,42.805,6.029,-0.032,0.025,-0.048,105.0,109.0,102.0,13.4,1505.3,325.1,-0.7,1.8,2470.255,13.33,0.04,308.0
2020-03-20T01:13:03,42.805,6.029,-0.006,0.018,-0.035,107.0,108.0,104.0,13.4,1505.3,324.0,-0.7,1.8,2470.236,13.33,0.018,341.6
2020-03-20T01:16:03,42.805,6.029,-0.025,0.019,-0.006,107.0,108.0,104.0,13.3,1505.3,326.2,-0.7,1.8,2470.235,13.33,0.031,307.2
2020-03-20T01:19:03,42.805,6.029,-0.026,0.034,-0.016,106.0,109.0,103.0,13.4,1505.3,324.4,-0.7,1.8,2470.282,13.33,0.042,322.6
2020-03-20T01:22:03,42.805,6.029,-0.025,0.02,-0.019,105.0,110.0,103.0,13.4,1505.3,324.7,-0.7,1.8,2470.241,13.33,0.032,308.7
2020-03-20T01:25:03,42.805,6.029,-0.015,0.034,-0.035,106.0,109.0,103.0,13.4,1505.3,327.0,-0.7,1.8,2470.221,13.33,0.037,336.2
2020-03-20T01:28:03,42.805,6.029,-0.023,0.021,0.001,106.0,108.0,103.0,13.4,1505.3,327.2,-0.7,1.8,2470.23,13.33,0.031,312.4
2020-03-20T01:31:03,42.805,6.029,-0.013,0.027,-0.024,106.0,108.0,102.0,13.4,1505.3,326.1,-0.7,1.8,2470.263,13.33,0.029,334.3
2020-03-20T01:34:03,42.805,6.029,-0.01,0.017,-0.006,107.0,109.0,104.0,13.4,1505.3,327.1,-0.7,1.8,2470.246,13.33,0.019,329.5
2020-03-20T01:37:03,42.805,6.029,-0.02,0.022,0.003,106.0,109.0,102.0,13.4,1505.3,325.9,-0.7,1.8,2470.227,13.33,0.029,317.7
2020-03-20T01:40:03,42.805,6.029,-0.024,0.012,-0.063,106.0,109.0,103.0,13.3,1505.3,327.2,-0.7,1.8,2470.263,13.33,0.026,296.6
2020-03-20T01:43:03,42.805,6.029,0.003,0.033,-0.014,107.0,107.0,104.0,13.3,1505.3,326.9,-0.7,1.8,2470.22,13.33,0.033,5.2
2020-03-20T01:46:03,42.805,6.029,-0.025,0.029,-0.059,105.0,109.0,103.0,13.4,1505.3,325.3,-0.7,1.8,2470.237,13.33,0.038,319.2
2020-03-20T01:49:03,42.805,6.029,-0.012,0.013,-0.024,106.0,110.0,103.0,13.3,1505.3,323.0,-0.7,1.9,2470.267,13.33,0.017,317.3
2020-03-20T01:52:03,42.805,6.029,-0.011,0.013,-0.036,106.0,110.0,104.0,13.3,1505.3,327.2,-0.7,1.8,2470.274,13.33,0.017,319.8
2020-03-20T01:55:03,42.805,6.029,-0.01,0.018,-0.018,106.0,108.0,103.0,13.4,1505.3,324.8,-0.7,1.8,2470.235,13.33,0.02,330.9
2020-03-20T01:58:03,42.805,6.029,-0.017,0.02,-0.028,106.0,109.0,104.0,13.4,1505.3,326.6,-0.7,1.8,2470.266,13.33,0.026,319.6
2020-03-20T02:04:03,42.805,6.029,0.0,0.002,-0.017,107.0,110.0,103.0,13.4,1505.3,323.7,-0.7,1.8,2470.294,13.31,0.002,0.0
2020-03-20T02:07:03,42.805,6.029,0.009,0.026,-0.014,105.0,108.0,104.0,13.3,1505.3,328.5,-0.7,1.8,2470.271,13.32,0.027,19.1
2020-03-20T02:10:03,42.805,6.029,-0.016,0.021,-0.04,106.0,108.0,105.0,13.4,1505.3,324.9,-0.7,1.8,2470.282,13.33,0.026,322.7
2020-03-20T02:13:03,42.805,6.029,-0.022,0.045,-0.024,106.0,108.0,103.0,13.3,1505.3,326.7,-0.7,1.8,2470.3,13.33,0.05,333.9
2020-03-20T02:16:03,42.805,6.029,-0.02,0.032,-0.005,106.0,108.0,103.0,13.4,1505.3,325.7,-0.7,1.8,2470.278,13.33,0.037,328.0
2020-03-20T02:19:03,42.805,6.029,-0.016,0.031,-0.03,105.0,109.0,103.0,13.4,1505.3,323.7,-0.7,1.8,2470.318,13.33,0.034,332.7
2020-03-20T02:22:03,42.805,6.029,-0.004,0.016,-0.028,106.0,109.0,102.0,13.3,1505.3,323.8,-0.7,1.8,2470.297,13.33,0.016,346.0
2020-03-20T02:25:03,42.805,6.029,-0.019,0.003,-0.012,107.0,109.0,102.0,13.3,1505.3,327.9,-0.7,1.8,2470.271,13.33,0.019,279.0
2020-03-20T02:28:03,42.805,6.029,-0.015,0.027,-0.021,105.0,109.0,103.0,13.4,1505.3,324.3,-0.7,1.8,2470.278,13.33,0.03,330.9
2020-03-20T02:31:03,42.805,6.029,-0.011,0.008,-0.006,105.0,108.0,103.0,13.4,1505.3,325.8,-0.7,1.8,2470.287,13.33,0.013,306.0
2020-03-20T02:34:03,42.805,6.029,-0.012,0.01,-0.033,106.0,108.0,102.0,13.3,1505.3,323.3,-0.7,1.8,2470.319,13.33,0.015,309.8
2020-03-20T02:37:03,42.805,6.029,0.0,0.027,-0.029,107.0,108.0,103.0,13.4,1505.3,328.3,-0.7,1.8,2470.269,13.33,0.026,0.0
2020-03-20T02:40:03,42.805,6.029,-0.014,0.021,-0.047,107.0,108.0,102.0,13.4,1505.3,327.1,-0.7,1.8,2470.285,13.33,0.025,326.3
2020-03-20T02:43:03,42.805,6.029,-0.013,0.018,-0.036,107.0,107.0,103.0,13.4,1505.3,325.7,-0.7,1.8,2470.275,13.33,0.022,324.2
2020-03-20T02:46:03,42.805,6.029,-0.037,0.027,-0.054,106.0,108.0,101.0,13.3,1505.3,325.8,-0.7,1.8,2470.292,13.33,0.045,306.1
2020-03-20T02:49:03,42.805,6.029,-0.031,0.027,-0.022,103.0,109.0,101.0,13.3,1505.3,327.2,-0.7,1.9,2470.326,13.33,0.041,311.1
2020-03-20T02:55:03,42.805,6.029,-0.029,0.003,-0.089,104.0,109.0,103.0,13.4,1505.3,328.1,-0.7,1.8,2470.309,13.32,0.029,275.9
2020-03-20T02:58:03,42.805,6.029,-0.033,0.043,-0.048,105.0,109.0,102.0,13.4,1505.3,325.4,-0.7,1.8,2470.289,13.32,0.054,322.5
2020-03-20T03:04:03,42.805,6.029,-0.042,0.029,-0.026,105.0,109.0,103.0,13.4,1505.3,324.5,-0.7,1.8,2470.38,13.31,0.051,304.6
2020-03-20T03:07:03,42.805,6.029,-0.016,0.018,-0.013,105.0,109.0,102.0,13.4,1505.3,325.0,-0.7,1.8,2470.386,13.32,0.024,318.4
2020-03-20T03:10:03,42.805,6.029,-0.004,0.036,-0.019,106.0,108.0,102.0,13.4,1505.3,327.4,-0.7,1.9,2470.351,13.33,0.036,353.7
2020-03-20T03:13:03,42.805,6.029,-0.024,0.019,-0.03,107.0,108.0,101.0,13.4,1505.3,327.5,-0.7,1.8,2470.343,13.33,0.03,308.4
2020-03-20T03:16:03,42.805,6.029,-0.019,0.039,-0.01,106.0,108.0,102.0,13.3,1505.3,326.4,-0.7,1.8,2470.314,13.33,0.043,334.0
2020-03-20T03:19:03,42.805,6.029,-0.02,0.036,-0.034,105.0,108.0,102.0,13.3,1505.4,326.9,-0.7,1.9,2470.339,13.34,0.041,330.9
2020-03-20T03:22:03,42.805,6.029,-0.011,0.011,-0.032,106.0,108.0,103.0,13.3,1505.4,326.4,-0.7,1.8,2470.343,13.34,0.015,315.0
2020-03-20T03:25:03,42.805,6.029,-0.001,0.028,-0.047,104.0,109.0,102.0,13.3,1505.4,327.1,-0.7,1.8,2470.327,13.34,0.028,358.0
2020-03-20T03:28:03,42.805,6.029,-0.014,0.026,-0.025,104.0,111.0,102.0,13.4,1505.4,323.2,-0.7,1.8,2470.326,13.34,0.029,331.7
2020-03-20T03:31:03,42.805,6.029,-0.008,0.015,-0.007,105.0,110.0,103.0,13.4,1505.4,326.5,-0.7,1.8,2470.312,13.34,0.017,331.9
2020-03-20T03:34:03,42.805,6.029,-0.03,0.035,-0.057,107.0,111.0,103.0,13.4,1505.4,327.6,-0.7,1.8,2470.332,13.34,0.046,319.4
2020-03-20T03:37:03,42.805,6.029,-0.01,0.026,-0.007,106.0,110.0,103.0,13.4,1505.4,323.5,-0.7,1.8,2470.371,13.34,0.027,339.0
2020-03-20T03:40:03,42.805,6.029,-0.009,-0.002,-0.039,106.0,110.0,103.0,13.4,1505.4,324.3,-0.7,1.8,2470.302,13.34,0.009,257.5
2020-03-20T03:43:03,42.805,6.029,0.008,0.005,-0.013,106.0,110.0,104.0,13.4,1505.4,327.0,-0.7,1.8,2470.384,13.34,0.009,58.0
2020-03-20T03:46:03,42.805,6.029,-0.023,0.042,-0.01,105.0,111.0,103.0,13.3,1505.4,324.4,-0.7,1.8,2470.355,13.34,0.047,331.3
2020-03-20T03:49:03,42.805,6.029,0.005,0.018,-0.053,106.0,109.0,102.0,13.4,1505.4,326.4,-0.7,1.8,2470.319,13.34,0.018,15.5
2020-03-20T03:52:03,42.805,6.029,-0.008,0.029,-0.032,106.0,110.0,102.0,13.3,1505.4,324.9,-0.7,1.9,2470.341,13.34,0.03,344.6
2020-03-20T03:55:03,42.805,6.029,-0.01,0.007,-0.027,105.0,110.0,103.0,13.3,1505.4,326.6,-0.7,1.8,2470.343,13.34,0.012,305.0
2020-03-20T03:58:03,42.805,6.029,-0.005,0.037,-0.04,105.0,111.0,102.0,13.3,1505.4,328.2,-0.7,1.8,2470.315,13.34,0.037,352.3
2020-03-20T04:04:03,42.805,6.029,-0.005,0.041,-0.026,106.0,110.0,103.0,13.4,1505.3,325.1,-0.8,1.8,2470.388,13.32,0.041,353.0
2020-03-20T04:07:03,42.805,6.029,-0.005,0.034,-0.025,106.0,110.0,103.0,13.4,1505.3,323.9,-0.7,1.8,2470.385,13.33,0.034,351.6
2020-03-20T04:10:03,42.805,6.029,-0.014,0.045,-0.024,104.0,111.0,103.0,13.4,1505.3,327.1,-0.7,1.8,2470.365,13.33,0.047,342.7
2020-03-20T04:13:03,42.805,6.029,-0.009,0.009,0.007,108.0,111.0,102.0,13.4,1505.3,328.2,-0.7,1.9,2470.334,13.33,0.012,315.0
2020-03-20T04:16:03,42.805,6.029,-0.024,0.023,-0.043,105.0,110.0,103.0,13.4,1505.3,324.0,-0.7,1.8,2470.406,13.33,0.033,313.8
2020-03-20T04:19:03,42.805,6.029,-0.022,0.021,-0.054,105.0,109.0,103.0,13.4,1505.4,326.5,-0.7,1.8,2470.369,13.34,0.03,313.7
2020-03-20T04:22:03,42.805,6.029,-0.003,0.02,-0.03,107.0,110.0,103.0,13.3,1505.4,325.0,-0.7,1.8,2470.378,13.34,0.02,351.5
2020-03-20T04:25:03,42.805,6.029,-0.013,0.022,-0.048,105.0,110.0,102.0,13.3,1505.4,326.7,-0.7,1.8,2470.358,13.34,0.025,329.4
2020-03-20T04:28:03,42.805,6.029,-0.012,0.025,-0.019,105.0,111.0,103.0,13.4,1505.4,326.4,-0.7,1.8,2470.383,13.34,0.027,334.4
2020-03-20T04:31:03,42.805,6.029,-0.036,0.018,-0.044,106.0,110.0,102.0,13.4,1505.4,324.4,-0.7,1.8,2470.367,13.34,0.04,296.6
2020-03-20T04:34:03,42.805,6.029,-0.03,0.034,-0.05,105.0,110.0,102.0,13.4,1505.4,323.2,-0.7,1.8,2470.353,13.34,0.045,318.6
2020-03-20T04:37:03,42.805,6.029,-0.023,0.022,-0.041,106.0,110.0,103.0,13.4,1505.4,325.8,-0.7,1.8,2470.354,13.34,0.031,313.7
2020-03-20T04:40:03,42.805,6.029,0.003,0.017,-0.023,106.0,110.0,104.0,13.4,1505.4,327.5,-0.7,1.8,2470.372,13.34,0.017,10.0
2020-03-20T04:43:03,42.805,6.029,-0.025,0.027,-0.046,106.0,109.0,102.0,13.4,1505.4,325.0,-0.7,1.8,2470.378,13.34,0.036,317.2
2020-03-20T04:46:03,42.805,6.029,-0.024,0.038,-0.019,106.0,110.0,104.0,13.4,1505.4,325.6,-0.7,1.8,2470.339,13.34,0.044,327.7
2020-03-20T04:49:03,42.805,6.029,-0.001,0.02,-0.024,107.0,110.0,102.0,13.4,1505.4,323.2,-0.7,1.9,2470.348,13.34,0.02,357.1
2020-03-20T04:52:03,42.805,6.029,-0.016,0.025,-0.048,106.0,109.0,102.0,13.3,1505.4,327.0,-0.7,1.9,2470.361,13.34,0.029,327.4
2020-03-20T04:55:03,42.805,6.029,-0.012,0.036,-0.004,105.0,109.0,103.0,13.4,1505.4,325.3,-0.7,1.8,2470.32,13.34,0.037,341.6
2020-03-20T04:58:03,42.805,6.029,0.009,0.045,-0.005,105.0,109.0,102.0,13.4,1505.4,325.9,-0.7,1.9,2470.356,13.34,0.045,11.3
2020-03-20T05:04:03,42.805,6.029,-0.024,0.026,-0.019,105.0,108.0,102.0,13.3,1505.3,322.7,-0.7,1.8,2470.406,13.32,0.035,317.3
2020-03-20T05:07:03,42.805,6.029,-0.02,0.0,-0.047,105.0,109.0,102.0,13.4,1505.3,327.2,-0.7,1.8,2470.391,13.32,0.02,270.0
2020-03-20T05:10:03,42.805,6.029,-0.009,0.029,-0.014,106.0,108.0,101.0,13.4,1505.3,324.7,-0.7,1.8,2470.354,13.33,0.03,342.8
2020-03-20T05:13:03,42.805,6.029,-0.006,0.024,-0.007,106.0,108.0,102.0,13.4,1505.3,326.5,-0.7,1.8,2470.4,13.33,0.024,346.0
2020-03-20T05:16:03,42.805,6.029,-0.022,0.021,0.004,106.0,109.0,103.0,13.4,1505.3,324.6,-0.7,1.8,2470.366,13.33,0.03,313.7
2020-03-20T05:19:03,42.805,6.029,-0.019,0.026,0.0,106.0,108.0,104.0,13.4,1505.3,323.5,-0.7,1.8,2470.351,13.33,0.032,323.8
2020-03-20T05:22:03,42.805,6.029,-0.022,0.022,-0.025,107.0,110.0,103.0,13.4,1505.3,326.7,-0.7,1.8,2470.36,13.33,0.031,315.0
2020-03-20T05:25:03,42.805,6.029,0.0,0.024,-0.004,106.0,109.0,104.0,13.3,1505.3,325.7,-0.7,1.8,2470.409,13.33,0.024,0.0
2020-03-20T05:28:03,42.805,6.029,-0.013,0.017,0.007,105.0,109.0,102.0,13.4,1505.3,326.5,-0.7,1.8,2470.369,13.33,0.021,322.6
2020-03-20T05:31:03,42.805,6.029,-0.003,0.031,-0.018,106.0,110.0,101.0,13.4,1505.3,325.7,-0.7,1.8,2470.36,13.33,0.031,354.5
2020-03-20T05:34:03,42.805,6.029,-0.039,0.042,-0.016,105.0,110.0,102.0,13.4,1505.3,326.7,-0.7,1.8,2470.364,13.33,0.057,317.1
2020-03-20T05:37:03,42.805,6.029,-0.014,0.032,-0.039,106.0,111.0,103.0,13.4,1505.3,327.3,-0.7,1.8,2470.34,13.33,0.034,336.4
2020-03-20T05:40:03,42.805,6.029,-0.055,0.003,-0.036,107.0,112.0,103.0,13.4,1505.3,324.5,-0.7,1.8,2470.358,13.33,0.055,273.1
2020-03-20T05:43:03,42.805,6.029,-0.024,0.01,-0.044,105.0,110.0,103.0,13.3,1505.3,323.3,-0.7,1.8,2470.35,13.33,0.026,292.6
2020-03-20T05:46:03,42.805,6.029,-0.036,0.029,-0.05,106.0,110.0,102.0,13.4,1505.3,324.3,-0.7,1.8,2470.339,13.33,0.046,308.9
2020-03-20T05:49:03,42.805,6.029,-0.031,0.015,-0.074,105.0,111.0,101.0,13.4,1505.3,325.1,-0.7,1.9,2470.383,13.33,0.034,295.8
2020-03-20T05:52:03,42.805,6.029,-0.012,0.017,-0.039,104.0,109.0,103.0,13.4,1505.3,327.7,-0.7,1.8,2470.331,13.33,0.02,324.8
2020-03-20T05:55:03,42.805,6.029,-0.033,0.032,-0.029,106.0,111.0,101.0,13.4,1505.3,326.7,-0.7,1.8,2470.343,13.33,0.045,314.1
2020-03-20T05:58:03,42.805,6.029,-0.027,0.024,-0.035,106.0,112.0,102.0,13.4,1505.3,327.4,-0.7,1.9,2470.353,13.33,0.036,311.6
2020-03-20T06:04:03,42.805,6.029,-0.041,0.016,-0.039,105.0,112.0,102.0,13.4,1505.3,324.7,-0.7,1.8,2470.415,13.31,0.044,291.3
2020-03-20T06:07:03,42.805,6.029,-0.044,0.039,-0.071,105.0,112.0,104.0,13.3,1505.3,327.6,-0.8,1.8,2470.397,13.32,0.058,311.6
2020-03-20T06:10:03,42.805,6.029,-0.021,0.026,-0.031,107.0,112.0,102.0,13.4,1505.3,327.0,-0.7,1.9,2470.372,13.33,0.033,321.1
2020-03-20T06:13:03,42.805,6.029,-0.016,0.032,-0.005,106.0,112.0,103.0,13.4,1505.3,327.4,-0.7,1.8,2470.379,13.33,0.035,333.4
2020-03-20T06:16:03,42.805,6.029,-0.047,0.028,-0.071,106.0,111.0,103.0,13.4,1505.3,324.4,-0.7,1.8,2470.377,13.33,0.054,300.8
2020-03-20T06:19:03,42.805,6.029,-0.012,0.022,-0.009,107.0,110.0,102.0,13.4,1505.3,327.2,-0.7,1.8,2470.399,13.33,0.025,331.4
2020-03-20T06:22:03,42.805,6.029,-0.049,0.025,-0.006,107.0,110.0,103.0,13.3,1505.3,325.0,-0.7,1.8,2470.361,13.33,0.055,297.0
2020-03-20T06:25:03,42.805,6.029,-0.017,0.032,-0.016,106.0,110.0,104.0,13.4,1505.3,325.1,-0.7,1.8,2470.351,13.33,0.036,332.0
2020-03-20T06:28:03,42.805,6.029,-0.048,0.029,-0.038,107.0,111.0,103.0,13.4,1505.3,327.2,-0.7,1.8,2470.373,13.33,0.056,301.1
2020-03-20T06:31:03,42.805,6.029,-0.011,0.021,-0.013,106.0,112.0,104.0,13.4,1505.3,325.2,-0.7,1.8,2470.329,13.33,0.023,332.4
2020-03-20T06:34:03,42.805,6.029,-0.03,-0.003,-0.006,107.0,110.0,103.0,13.4,1505.3,324.7,-0.7,1.8,2470.401,13.33,0.03,264.3
2020-03-20T06:37:03,42.805,6.029,-0.027,0.043,-0.033,105.0,112.0,103.0,13.4,1505.3,328.2,-0.7,1.9,2470.374,13.33,0.05,327.9
2020-03-20T06:40:03,42.805,6.029,-0.039,0.023,-0.036,107.0,111.0,104.0,13.4,1505.3,325.7,-0.7,1.8,2470.348,13.33,0.045,300.5
2020-03-20T06:43:03,42.805,6.029,-0.047,0.013,-0.018,107.0,110.0,105.0,13.3,1505.3,324.9,-0.7,1.9,2470.363,13.33,0.048,285.5
2020-03-20T06:46:03,42.805,6.029,-0.018,0.034,0.002,107.0,110.0,103.0,13.4,1505.3,327.5,-0.7,1.8,2470.322,13.33,0.038,332.1
2020-03-20T06:52:03,42.805,6.029,-0.025,0.037,-0.01,106.0,112.0,104.0,13.4,1505.3,324.6,-0.7,1.8,2470.37,13.31,0.044,326.0
2020-03-20T06:55:03,42.805,6.029,-0.063,0.026,-0.044,106.0,110.0,105.0,13.4,1505.3,325.6,-0.7,1.8,2470.366,13.32,0.068,292.4
2020-03-20T06:58:03,42.805,6.029,-0.025,0.03,-0.015,107.0,112.0,104.0,13.3,1505.3,324.3,-0.7,1.8,2470.381,13.33,0.039,320.2
2020-03-20T07:04:03,42.805,6.029,-0.008,0.039,-0.019,106.0,112.0,102.0,13.4,1505.3,324.1,-0.7,1.8,2470.415,13.31,0.039,348.4
2020-03-20T07:07:03,42.805,6.029,-0.029,0.049,-0.023,107.0,112.0,102.0,13.4,1505.3,323.0,-0.7,1.8,2470.387,13.32,0.056,329.4
2020-03-20T07:10:03,42.805,6.029,-0.054,0.031,-0.047,106.0,110.0,104.0,13.3,1505.3,323.8,-0.7,1.9,2470.344,13.33,0.062,299.9
2020-03-20T07:13:03,42.805,6.029,-0.027,0.021,-0.022,106.0,112.0,103.0,13.3,1505.3,324.1,-0.7,1.8,2470.393,13.33,0.034,307.9
2020-03-20T07:16:03,42.805,6.029,-0.031,0.015,-0.029,106.0,112.0,103.0,13.3,1505.3,326.3,-0.7,1.8,2470.374,13.33,0.034,295.8
2020-03-20T07:19:03,42.805,6.029,-0.006,0.032,-0.025,107.0,113.0,103.0,13.4,1505.3,326.7,-0.7,1.8,2470.339,13.33,0.032,349.4
2020-03-20T07:22:03,42.805,6.029,-0.029,0.043,-0.026,107.0,112.0,102.0,13.4,1505.3,323.7,-0.7,1.8,2470.412,13.33,0.051,326.0
2020-03-20T07:25:03,42.805,6.029,-0.05,0.055,-0.043,105.0,113.0,103.0,13.4,1505.4,324.3,-0.7,1.8,2470.346,13.34,0.074,317.7
2020-03-20T07:28:03,42.805,6.029,-0.02,0.021,-0.065,106.0,111.0,103.0,13.4,1505.4,325.0,-0.7,1.9,2470.375,13.34,0.028,316.4
2020-03-20T07:31:03,42.805,6.029,-0.017,0.026,-0.022,106.0,112.0,103.0,13.4,1505.4,325.8,-0.7,1.8,2470.372,13.34,0.031,326.8
2020-03-20T07:34:03,42.805,6.029,-0.028,0.015,-0.065,107.0,112.0,102.0,13.3,1505.4,324.3,-0.7,1.8,2470.332,13.34,0.031,298.2
2020-03-20T07:37:03,42.805,6.029,-0.022,0.032,-0.018,106.0,112.0,104.0,13.3,1505.4,326.9,-0.7,1.8,2470.363,13.34,0.038,325.5
2020-03-20T07:40:03,42.805,6.029,-0.015,0.021,-0.008,106.0,112.0,102.0,13.3,1505.4,325.4,-0.7,1.8,2470.422,13.34,0.025,324.5
2020-03-20T07:43:03,42.805,6.029,-0.024,0.018,-0.017,107.0,112.0,103.0,13.3,1505.4,325.4,-0.7,1.9,2470.339,13.34,0.03,306.9
2020-03-20T07:46:03,42.805,6.029,-0.004,0.011,-0.015,104.0,113.0,101.0,13.4,1505.4,324.5,-0.7,1.8,2470.371,13.34,0.011,340.0
2020-03-20T07:49:03,42.805,6.029,-0.019,0.017,-0.012,106.0,112.0,102.0,13.4,1505.4,326.8,-0.7,1.8,2470.35,13.34,0.025,311.8
2020-03-20T07:52:03,42.805,6.029,-0.012,0.036,-0.02,105.0,112.0,103.0,13.4,1505.4,327.5,-0.7,1.8,2470.349,13.34,0.037,341.6
2020-03-20T07:55:03,42.805,6.029,-0.025,0.025,-0.059,105.0,114.0,102.0,13.3,1505.4,323.5,-0.7,1.8,2470.309,13.34,0.035,315.0
2020-03-20T07:58:03,42.805,6.029,-0.037,0.014,-0.027,106.0,113.0,102.0,13.3,1505.4,326.6,-0.7,1.8,2470.333,13.34,0.039,290.7
2020-03-20T08:04:03,42.805,6.029,-0.033,0.023,-0.052,107.0,113.0,103.0,13.4,1505.3,323.8,-0.8,1.8,2470.355,13.32,0.04,304.9
2020-03-20T08:07:03,42.805,6.029,-0.044,0.034,-0.028,108.0,111.0,103.0,13.3,1505.3,325.6,-0.7,1.8,2470.355,13.32,0.055,307.7
2020-03-20T08:10:03,42.805,6.029,-0.049,0.022,-0.016,105.0,112.0,103.0,13.4,1505.3,326.1,-0.7,1.8,2470.348,13.33,0.053,294.2
2020-03-20T08:13:03,42.805,6.029,-0.015,0.035,-0.049,105.0,109.0,103.0,13.3,1505.3,324.8,-0.7,1.8,2470.354,13.33,0.038,336.8
2020-03-20T08:16:03,42.805,6.029,0.004,0.024,-0.038,107.0,112.0,103.0,13.4,1505.3,323.2,-0.7,1.8,2470.378,13.33,0.024,9.5
2020-03-20T08:19:03,42.805,6.029,-0.018,0.035,-0.044,107.0,112.0,103.0,13.4,1505.3,322.7,-0.7,1.8,2470.331,13.33,0.039,332.8
2020-03-20T08:22:03,42.805,6.029,-0.033,0.039,-0.039,105.0,114.0,104.0,13.4,1505.3,323.8,-0.7,1.9,2470.328,13.33,0.051,319.8
2020-03-20T08:25:03,42.805,6.029,-0.02,0.039,-0.031,106.0,111.0,101.0,13.4,1505.4,326.4,-0.7,1.8,2470.342,13.34,0.043,332.9
2020-03-20T08:28:03,42.805,6.029,-0.031,0.03,-0.055,107.0,111.0,102.0,13.3,1505.4,325.2,-0.7,1.8,2470.292,13.34,0.043,314.1
2020-03-20T08:31:03,42.805,6.029,-0.008,0.032,-0.014,106.0,111.0,103.0,13.4,1505.4,326.9,-0.7,1.9,2470.327,13.34,0.032,346.0
2020-03-20T08:37:03,42.805,6.029,-0.03,0.043,-0.052,107.0,112.0,103.0,13.4,1505.3,325.4,-0.7,1.8,2470.351,13.32,0.052,325.1
2020-03-20T08:40:03,42.805,6.029,-0.021,0.012,-0.035,106.0,112.0,104.0,13.4,1505.3,326.3,-0.7,1.8,2470.337,13.32,0.024,299.7
2020-03-20T08:43:03,42.805,6.029,-0.021,0.041,-0.031,106.0,111.0,103.0,13.4,1505.3,325.6,-0.7,1.8,2470.335,13.33,0.046,332.9
2020-03-20T08:46:03,42.805,6.029,-0.047,0.006,-0.049,106.0,111.0,103.0,13.3,1505.3,323.1,-0.7,1.9,2470.311,13.33,0.047,277.3
2020-03-20T08:49:03,42.805,6.029,-0.01,0.027,-0.037,107.0,110.0,102.0,13.3,1505.3,324.5,-0.7,1.8,2470.271,13.33,0.028,339.7
2020-03-20T08:52:03,42.805,6.029,-0.027,0.026,-0.02,106.0,112.0,102.0,13.4,1505.3,323.6,-0.7,1.8,2470.336,13.33,0.037,313.9
2020-03-20T08:55:03,42.805,6.029,-0.028,0.035,0.014,107.0,111.0,103.0,13.4,1505.3,325.6,-0.7,1.8,2470.301,13.33,0.044,321.3
2020-03-20T08:58:03,42.805,6.029,-0.012,0.038,-0.017,106.0,111.0,105.0,13.4,1505.4,325.5,-0.7,1.8,2470.296,13.34,0.039,342.5
2020-03-20T09:04:03,42.805,6.029,0.013,0.025,-0.022,105.0,111.0,104.0,13.3,1505.3,326.5,-0.7,1.8,2470.341,13.32,0.028,27.5
2020-03-20T09:07:03,42.805,6.029,-0.037,0.044,-0.007,105.0,110.0,102.0,13.3,1505.3,325.5,-0.8,1.8,2470.327,13.33,0.057,319.9
2020-03-20T09:10:03,42.805,6.029,-0.008,0.039,-0.033,105.0,110.0,101.0,13.4,1505.3,327.3,-0.7,1.8,2470.333,13.33,0.039,348.4
2020-03-20T09:13:03,42.805,6.029,-0.019,0.042,-0.013,104.0,112.0,102.0,13.4,1505.3,324.8,-0.7,1.8,2470.323,13.33,0.046,335.7
2020-03-20T09:16:03,42.805,6.029,-0.027,0.018,-0.019,105.0,110.0,102.0,13.3,1505.3,324.1,-0.7,1.8,2470.309,13.33,0.032,303.7
2020-03-20T09:19:03,42.805,6.029,-0.014,0.031,-0.032,106.0,111.0,102.0,13.4,1505.3,325.3,-0.7,1.8,2470.327,13.33,0.034,335.7
2020-03-20T09:22:03,42.805,6.029,-0.001,0.016,-0.024,106.0,111.0,102.0,13.4,1505.4,324.4,-0.7,1.9,2470.32,13.34,0.016,356.4
2020-03-20T09:25:03,42.805,6.029,-0.025,0.006,-0.042,106.0,111.0,103.0,13.4,1505.4,324.4,-0.7,1.8,2470.332,13.34,0.025,283.5
2020-03-20T09:28:03,42.805,6.029,-0.025,0.042,-0.019,106.0,112.0,101.0,13.4,1505.4,324.7,-0.7,1.9,2470.35,13.34,0.048,329.2
2020-03-20T09:31:03,42.805,6.029,-0.004,0.022,-0.041,105.0,112.0,102.0,13.4,1505.4,323.2,-0.7,1.8,2470.302,13.34,0.022,349.7
2020-03-20T09:37:03,42.805,6.029,-0.008,0.038,-0.037,106.0,110.0,102.0,13.4,1505.3,328.0,-0.7,1.8,2470.335,13.32,0.038,348.1
2020-03-20T09:40:03,42.805,6.029,0.0,0.022,-0.032,105.0,111.0,102.0,13.4,1505.3,327.2,-0.7,1.9,2470.283,13.32,0.022,0.0
2020-03-20T09:43:03,42.805,6.029,-0.025,0.035,-0.058,105.0,111.0,102.0,13.3,1505.3,326.9,-0.7,1.9,2470.351,13.33,0.043,324.5
2020-03-20T09:46:03,42.805,6.029,-0.006,0.026,-0.019,106.0,111.0,103.0,13.4,1505.3,327.8,-0.7,1.9,2470.287,13.33,0.026,347.0
2020-03-20T09:49:03,42.805,6.029,0.003,0.021,-0.035,105.0,111.0,103.0,13.3,1505.3,328.2,-0.7,1.8,2470.29,13.33,0.021,8.1
2020-03-20T09:52:03,42.805,6.029,-0.01,0.033,-0.056,105.0,112.0,103.0,13.4,1505.3,327.5,-0.7,1.8,2470.327,13.33,0.034,343.1
2020-03-20T09:55:03,42.805,6.029,-0.011,0.015,-0.029,105.0,111.0,102.0,13.4,1505.4,327.9,-0.7,1.8,2470.292,13.34,0.018,323.7
2020-03-20T09:58:03,42.805,6.029,-0.01,0.015,-0.04,104.0,110.0,102.0,13.3,1505.4,327.4,-0.7,1.9,2470.317,13.34,0.018,326.3
2020-03-20T10:04:03,42.805,6.029,-0.015,0.028,-0.038,106.0,112.0,102.0,13.4,1505.3,325.3,-0.7,1.8,2470.279,13.32,0.031,331.8
2020-03-20T10:07:03,42.805,6.029,-0.011,0.036,0.004,106.0,111.0,102.0,13.4,1505.3,327.2,-0.7,1.9,2470.309,13.32,0.037,343.0
2020-03-20T10:10:03,42.805,6.029,-0.005,0.021,-0.054,105.0,111.0,103.0,13.4,1505.3,326.6,-0.7,1.8,2470.273,13.33,0.021,346.6
2020-03-20T10:13:03,42.805,6.029,-0.032,0.031,-0.029,106.0,112.0,103.0,13.4,1505.3,325.9,-0.7,1.8,2470.322,13.33,0.044,314.1
2020-03-20T10:16:03,42.805,6.029,-0.025,0.035,-0.041,107.0,112.0,103.0,13.3,1505.3,325.9,-0.7,1.8,2470.268,13.33,0.043,324.5